Regional Weather Roundup
Issued by NWS

Home | Current Version | Previous Version | Text Only | Print | Product List | Glossary On
Versions: 1 2 3 4 5 6 7 8 9 10 11 12 13 14 15 16 17 18 19 20 21 22 23 24 25 26 27 28 29 30 31 32 33 34 35 36 37 38 39 40 41 42 43 44 45 46 47 48 49 50
289
ASUS44 KLIX 201313
RWRLA
LOUISIANA WEATHER ROUNDUP
NATIONAL WEATHER SERVICE NEW ORLEANS LA
800 AM CDT WED AUG 20 2014

NOTE: "FAIR" INDICATES FEW OR NO CLOUDS BELOW 12,000 FEET WITH NO
      SIGNIFICANT WEATHER AND/OR OBSTRUCTIONS TO VISIBILITY.
      SKY/WX - SKY CONDITION AND SIGNIFICANT WEATHER.
      TMP - AIR TEMPERATURE.    DP   - DEWPOINT TEMPERATURE.
      RH  - RELATIVE HUMIDITY.  PRES - PRESSURE.
      HX  - HEAT INDEX.         WCI  - WIND CHILL INDEX.

*  THESE STATIONS ARE NOT NWS OR FAA STATIONS AND ARE NOT UNDER
   NWS QUALITY CONTROL.

LAZ040-048-061>063-065-066-069-201400-
SOUTHEAST LOUISIANA

CITY           SKY/WX    TMP DP  RH WIND       PRES   REMARKS
N.O. AUDUBON     N/A     78  78  99 MISG        N/A
N.O. INTL ARPT PTSUNNY   83  76  79 CALM      30.05R
N.O. LAKEFRONT MOSUNNY   84  77  79 CALM      30.06R
N.O. DOWNTOWN* FAIR      84  73  70 CALM      30.06R
SLIDELL        MOSUNNY   79  74  84 N3        30.06R
BATON ROUGE    MOSUNNY   76  72  87 NE3       30.05R
BOOTHVILLE     SUNNY     86  76  71 SW6       30.06R HX  96
BELLE CHASSE   PTSUNNY   82  76  81 NE3       30.05R
BOGALUSA*      FAIR      76  73  87 CALM      30.08R
GALLIANO*      NOT AVBL
NEW ROADS*     FAIR      73  72  96 CALM      30.05R
GONZALES*      FAIR      77  77  99 CALM      30.04R
HAMMOND*       MOSUNNY   77  72  83 CALM      30.07R
HOUMA*         MOSUNNY   79  75  89 CALM      30.04R
PORT FOURCHON* MOSUNNY   86  75  70 S8        30.06R HX  95

$$

LAZ041-044-053-054-201400-
SOUTHWEST LOUISIANA

CITY           SKY/WX    TMP DP  RH WIND       PRES   REMARKS
LAKE CHARLES   MOSUNNY   77  75  93 E3        30.01R
LAFAYETTE      MOSUNNY   76  74  93 NE3       30.03R
PATTERSON      SUNNY    N/A N/A N/A MISG        N/A
SALT POINT       N/A     88  79  74 CALM      30.02R HX 103
NEW IBERIA     SUNNY     80  77  90 CALM      30.03R
CHENAULT AIRPK SUNNY     75  75 100 CALM      30.02R

$$

LAZ027-028-201400-
CENTRAL LOUISIANA

CITY           SKY/WX    TMP DP  RH WIND       PRES   REMARKS
FORT POLK      MOSUNNY   73  71  93 CALM      30.03R
ALEXANDRIA INT PTSUNNY   74  71  91 SE7       30.01R
ALEXANDRIA     PTSUNNY   75  72  90 CALM      30.04R

$$

LAZ001-002-201400-
NORTHWEST LOUISIANA

CITY           SKY/WX    TMP DP  RH WIND       PRES   REMARKS
SHREVEPORT     MOSUNNY   76  71  85 SE3       30.00R
BARKSDALE AFB  MOSUNNY   74  72  96 SE5       30.01R
DTN SHREVEPORT MOSUNNY   76  70  82 SE5       30.01R

$$

LAZ014-016-201400-
NORTHEAST LOUISIANA

CITY           SKY/WX    TMP DP  RH WIND       PRES   REMARKS
MONROE         SUNNY     75  72  90 CALM      30.04R
TALLULAH       MOSUNNY   76  73  91 S5        30.05R

$$




USA.gov is the U.S. government's official web portal to all federal, state and local government web resources and services.